Total_Precipitation_Accumulation
1.57 1.71 1.65 1.58 1.61 1.67 1.71 1.74 1.74 1.58 1.27 0.88 0.74 0.72 0.77 0.81 1.04 0.96 0.84 0.82 0.70 0.60 0.49 0.42 0.38 0.40 0.54 0.69 0.87 1.05 1.16 1.24 1.24 1.15 1.06 1.01 1.04 1.10
1.37 1.51 1.61 1.65 1.70 1.71 1.75 1.76 1.70 1.62 1.46 1.08 0.84 0.72 0.80 0.77 0.90 0.77 0.87 1.03 0.80 0.63 0.53 0.47 0.43 0.42 0.42 0.49 0.54 0.58 0.60 0.63 0.72 0.80 0.82 0.82 0.84 0.88
1.21 1.23 1.40 1.55 1.67 1.71 1.73 1.72 1.75 1.67 1.46 1.26 0.99 0.82 0.90 0.90 0.90 0.80 0.86 0.92 0.82 0.74 0.64 0.55 0.49 0.47 0.43 0.44 0.45 0.41 0.43 0.44 0.49 0.57 0.62 0.63 0.63 0.65
1.05 1.13 1.24 1.27 1.36 1.51 1.62 1.62 1.70 1.72 1.59 1.47 1.22 1.01 0.97 0.97 1.06 1.09 1.06 1.01 0.97 1.03 0.97 0.79 0.65 0.58 0.52 0.46 0.42 0.40 0.37 0.38 0.38 0.41 0.46 0.57 0.67 0.67
0.91 0.97 1.04 1.13 1.22 1.26 1.35 1.46 1.54 1.58 1.62 1.54 1.44 1.31 1.16 1.08 1.09 1.06 1.16 1.30 1.25 1.23 1.27 1.09 0.88 0.74 0.65 0.59 0.52 0.46 0.41 0.41 0.39 0.38 0.39 0.44 0.51 0.61
0.81 0.90 0.96 1.01 1.08 1.15 1.19 1.31 1.44 1.53 1.53 1.49 1.44 1.37 1.31 1.28 1.25 1.19 1.25 1.38 1.46 1.37 1.35 1.27 1.17 1.05 0.90 0.77 0.66 0.59 0.54 0.51 0.50 0.47 0.45 0.44 0.46 0.49
0.76 0.80 0.84 0.81 0.85 0.93 0.92 1.09 1.25 1.42 1.48 1.51 1.43 1.33 1.27 1.28 1.25 1.26 1.31 1.46 1.52 1.57 1.56 1.44 1.31 1.15 1.01 0.90 0.77 0.69 0.66 0.60 0.57 0.55 0.55 0.52 0.52 0.54
0.68 0.72 0.80 0.82 0.78 0.74 0.73 0.81 0.94 1.05 1.22 1.34 1.38 1.31 1.23 1.21 1.29 1.39 1.41 1.47 1.58 1.53 1.45 1.53 1.46 1.34 1.16 0.97 0.94 0.90 0.80 0.71 0.64 0.61 0.59 0.56 0.53 0.53
0.53 0.66 0.78 0.84 0.87 0.89 0.77 0.76 0.77 0.81 0.89 1.05 1.20 1.21 1.19 1.20 1.24 1.32 1.41 1.44 1.36 1.44 1.40 1.48 1.46 1.33 1.18 1.10 1.14 1.01 0.91 0.84 0.78 0.71 0.66 0.63 0.61 0.60
0.47 0.57 0.72 0.84 0.87 0.89 0.84 0.90 0.88 0.78 0.75 0.81 1.00 1.08 1.09 1.20 1.31 1.42 1.54 1.53 1.48 1.48 1.41 1.42 1.36 1.22 1.12 1.10 1.17 1.04 0.94 0.87 0.82 0.80 0.78 0.75 0.73 0.72
0.44 0.52 0.67 0.76 0.86 0.87 0.84 0.95 0.95 0.78 0.70 0.79 0.82 0.88 0.98 1.10 1.28 1.42 1.51 1.51 1.50 1.49 1.35 1.22 1.17 1.21 1.20 1.12 1.08 1.06 0.96 0.87 0.79 0.75 0.73 0.72 0.72 0.81
0.44 0.49 0.69 0.74 0.77 0.74 0.76 0.96 1.06 0.93 0.70 0.67 0.74 0.85 0.92 1.06 1.29 1.43 1.65 1.64 1.45 1.43 1.33 1.20 1.19 1.26 1.38 1.27 1.08 0.97 0.91 0.92 0.89 0.83 0.80 0.79 0.86 0.84
0.32 0.37 0.40 0.52 0.55 0.59 0.70 0.82 0.92 0.82 0.75 0.83 0.92 0.95 1.02 1.07 1.16 1.28 1.50 1.66 1.58 1.37 1.27 1.29 1.27 1.26 1.22 1.16 1.10 1.00 0.89 0.87 0.85 0.84 0.88 0.90 0.94 0.93
0.22 0.27 0.31 0.40 0.44 0.50 0.58 0.63 0.67 0.72 0.78 0.91 0.94 0.86 0.91 0.97 0.97 1.06 1.23 1.37 1.26 1.19 1.11 1.07 1.09 1.03 0.99 0.91 0.91 0.96 0.96 0.90 0.86 0.86 0.84 0.97 1.02 1.04
0.15 0.22 0.26 0.34 0.34 0.40 0.48 0.49 0.58 0.80 0.92 0.87 0.84 0.81 0.79 0.82 0.82 0.92 1.12 1.28 1.23 1.05 0.95 0.88 0.88 0.89 0.88 0.83 0.77 0.76 0.81 0.83 0.79 0.80 0.83 0.83 0.83 0.91
0.17 0.20 0.24 0.31 0.34 0.37 0.44 0.51 0.63 0.79 0.93 0.79 0.67 0.68 0.69 0.78 0.84 0.83 0.92 1.02 1.17 1.15 1.01 0.94 0.89 0.89 0.88 0.79 0.76 0.72 0.66 0.68 0.72 0.79 0.82 0.81 0.78 0.77
0.20 0.29 0.39 0.50 0.50 0.51 0.57 0.61 0.64 0.65 0.70 0.65 0.64 0.68 0.72 0.74 0.80 0.82 0.83 0.85 0.88 0.92 0.95 0.93 0.91 0.92 0.95 0.90 0.82 0.73 0.69 0.65 0.68 0.79 0.88 0.88 0.82 0.80
0.29 0.34 0.46 0.60 0.65 0.67 0.68 0.69 0.70 0.66 0.67 0.62 0.64 0.65 0.66 0.66 0.69 0.77 0.85 0.91 0.86 0.77 0.73 0.72 0.76 0.85 0.92 0.95 0.84 0.74 0.72 0.71 0.71 0.74 0.78 0.80 0.75 0.74
0.30 0.35 0.53 0.59 0.57 0.59 0.65 0.69 0.63 0.53 0.54 0.54 0.51 0.51 0.52 0.52 0.55 0.61 0.70 0.77 0.78 0.73 0.69 0.68 0.70 0.75 0.79 0.75 0.70 0.61 0.63 0.69 0.76 0.75 0.71 0.68 0.62 0.59
0.32 0.46 0.60 0.63 0.58 0.52 0.49 0.46 0.41 0.38 0.40 0.40 0.42 0.42 0.46 0.48 0.49 0.51 0.54 0.57 0.62 0.65 0.71 0.73 0.74 0.75 0.75 0.73 0.66 0.57 0.54 0.59 0.66 0.70 0.68 0.69 0.70 0.73
0.28 0.38 0.47 0.54 0.49 0.37 0.31 0.30 0.29 0.31 0.33 0.35 0.39 0.43 0.44 0.46 0.48 0.51 0.52 0.54 0.57 0.60 0.63 0.65 0.69 0.81 0.84 0.85 0.78 0.62 0.56 0.61 0.67 0.65 0.66 0.69 0.69 0.68
0.18 0.22 0.26 0.28 0.27 0.25 0.25 0.26 0.27 0.30 0.32 0.35 0.38 0.42 0.46 0.51 0.52 0.50 0.52 0.53 0.54 0.54 0.55 0.57 0.66 0.77 0.83 0.85 0.77 0.64 0.56 0.57 0.67 0.74 0.73 0.70 0.64 0.58
0.17 0.20 0.22 0.23 0.25 0.25 0.26 0.27 0.28 0.30 0.32 0.34 0.38 0.43 0.45 0.47 0.52 0.52 0.51 0.52 0.52 0.52 0.54 0.56 0.60 0.70 0.77 0.79 0.75 0.68 0.62 0.58 0.59 0.60 0.59 0.63 0.60 0.54